Regional Weather Roundup
Issued by NWS

Home | Current Version | Previous Version | Graphics & Text | Print | Product List | Glossary Off
Versions: 1 2 3 4 5 6 7 8 9 10 11 12 13 14 15 16 17 18 19 20 21 22 23 24 25 26 27 28 29 30 31 32 33 34 35 36 37 38 39 40 41 42 43 44 45 46 47 48 49 50

000
ASUS43 KLSX 021307
RWRMO

WEATHER SUMMARY FOR MISSOURI
NATIONAL WEATHER SERVICE SPRINGFIELD MO
800 AM CDT WED SEP 02 2015

NOTE: "FAIR" INDICATES FEW OR NO CLOUDS BELOW 12,000 FEET WITH NO
       SIGNIFICANT WEATHER AND/OR OBSTRUCTIONS TO VISIBILITY.
       CURRENT SKY AND/OR WEATHER CONDITIONS ARE NOT AVAILABLE FOR
       CHILLICOTHE AND FARMINGTON.

MOZ001>031-035>038-043-044-053-054-021400-
...NORTHERN AND WESTERN MISSOURI...

CITY           SKY/WX    TMP DP  RH WIND       PRES   REMARKS
KANSAS CTY INT CLOUDY    76  65  68 NE5       30.06R
KANSAS C DTWN  PTSUNNY   75  66  73 S7        30.04R
LEE`S SUMMIT   PTSUNNY   71  65  81 S8        30.06R
ST JOSEPH      LGT RAIN  71  69  93 SE7       30.03R FOG
CHILLICOTHE      N/A     72  68  87 CALM      30.08R
KIRKSVILLE     CLOUDY    72  68  87 S5        30.09R FOG

$$
MOZ066>068-077>081-088>096-101>105-021400-
...SOUTHWEST MISSOURI...

CITY           SKY/WX    TMP DP  RH WIND       PRES   REMARKS
SPRINGFIELD    MOSUNNY   72  65  78 S10       30.11R
JOPLIN         SUNNY     72  67  84 S9        30.09R

$$
MOZ032>034-039>042-045>050-055>058-069>072-021400-
...CENTRAL MISSOURI...

CITY           SKY/WX    TMP DP  RH WIND       PRES   REMARKS
COLUMBIA       MOSUNNY   71  69  93 S7        30.10R
JEFFERSON CITY SUNNY     73  68  84 SE6       30.09R
ROLLA          SUNNY     74  68  81 S9        30.11R
SEDALIA        MOSUNNY   72  66  81 S8        30.10R
WHITEMAN AFB   MOSUNNY   73  68  85 SW7       30.07R
OSAGE BEACH    SUNNY     72  66  83 S3        30.10S

$$
MOZ051-052-059>065-021400-
...EAST CENTRAL MISSOURI...

CITY           SKY/WX    TMP DP  RH WIND       PRES   REMARKS
ST LOUIS INTL  MOSUNNY   78  68  71 S5        30.11R
SPIRIT OF STL  SUNNY     75  71  87 VRB3      30.09S
ST CHARLES     MOSUNNY   74  72  93 E5        30.10R

$$
MOZ072>076-082>087-097>100-106>115-021400-
...SOUTH CENTRAL AND SOUTHEAST MISSOURI...

CITY           SKY/WX    TMP DP  RH WIND       PRES   REMARKS
CAPE GIRARDEAU SUNNY     71  69  93 CALM      30.13R FOG
FARMINGTON     SUNNY     70  70 100 CALM      30.16R
POPLAR BLUFF     N/A     71  69  93 CALM      30.12R FOG
WEST PLAINS    SUNNY     70  67  90 CALM      30.16R FOG

$$



USA.gov is the U.S. government's official web portal to all federal, state and local government web resources and services.